,,,PA_Meas_PMT16A,,PR_Meas_QMR101_102,,RH_Meas_QMH101,,SR_Meas_QMS101,,TA_Meas_QMH101,,GenWind,,GenWind,
date,time,status,PA,status,PR,status,RH,status,SR,status,TA,status,DirAvg,status,SpdAvg,
2010-11-23, 00:00:04,VALID,1008.36,VALID,0,VALID,103.512,VALID,0,VALID,23.8871,VALID,16,VALID,0,
2010-11-23, 00:01:04,VALID,1008.36,VALID,0,VALID,103.535,VALID,0.105969,VALID,23.8889,VALID,16,VALID,0,
2010-11-23, 00:02:04,VALID,1008.31,VALID,0,VALID,103.558,VALID,0,VALID,23.8889,VALID,16,VALID,0,
2010-11-23, 00:03:04,VALID,1008.31,VALID,0,VALID,103.542,VALID,0,VALID,23.8889,VALID,16,VALID,0,
2010-11-23, 00:04:04,VALID,1008.31,VALID,0,VALID,103.558,VALID,0.105969,VALID,23.8694,VALID,16,VALID,0,
2010-11-23, 00:05:04,VALID,1008.32,VALID,0,VALID,103.542,VALID,0,VALID,23.8481,VALID,16,VALID,0,
2010-11-23, 00:06:04,VALID,1008.3,VALID,0,VALID,103.558,VALID,0,VALID,23.8481,VALID,16,VALID,0,
2010-11-23, 00:07:04,VALID,1008.29,VALID,0,VALID,103.573,VALID,0,VALID,23.8499,VALID,16,VALID,0,
2010-11-23, 00:08:04,VALID,1008.28,VALID,0,VALID,103.581,VALID,0,VALID,23.8499,VALID,16,VALID,0,
2010-11-23, 00:09:04,VALID,1008.25,VALID,0,VALID,103.588,VALID,0.105969,VALID,23.8286,VALID,16,VALID,0,
2010-11-23, 00:10:04,VALID,1008.25,VALID,0,VALID,103.603,VALID,0.105969,VALID,23.8481,VALID,16,VALID,0,
2010-11-23, 00:11:04,VALID,1008.22,VALID,0,VALID,103.611,VALID,0.105969,VALID,23.8481,VALID,16,VALID,0,
2010-11-23, 00:12:04,VALID,1008.21,VALID,0,VALID,103.626,VALID,0.105969,VALID,23.8481,VALID,16,VALID,0,
2010-11-23, 00:13:04,VALID,1008.21,VALID,0,VALID,103.596,VALID,0.105969,VALID,23.8286,VALID,16,VALID,0,
2010-11-23, 00:14:04,VALID,1008.2,VALID,0,VALID,103.626,VALID,0.105969,VALID,23.8286,VALID,16,VALID,0,
2010-11-23, 00:15:04,VALID,1008.24,VALID,0,VALID,103.626,VALID,0.105969,VALID,23.8286,VALID,16,VALID,0,
2010-11-23, 00:16:04,VALID,1008.22,VALID,0,VALID,103.634,VALID,0.105969,VALID,23.8286,VALID,16,VALID,0,
2010-11-23, 00:17:04,VALID,1008.23,VALID,0,VALID,103.642,VALID,0.105969,VALID,23.8499,VALID,16,VALID,0,
2010-11-23, 00:18:04,VALID,1008.25,VALID,0,VALID,103.642,VALID,0.105969,VALID,23.8091,VALID,16,VALID,0,
2010-11-23, 00:19:04,VALID,1008.23,VALID,0,VALID,103.657,VALID,0.105969,VALID,23.8091,VALID,16,VALID,0,
2010-11-23, 00:20:04,VALID,1008.23,VALID,0,VALID,103.664,VALID,0.105969,VALID,23.8091,VALID,16,VALID,0,
2010-11-23, 00:21:04,VALID,1008.21,VALID,0,VALID,103.657,VALID,0.105969,VALID,23.7896,VALID,16,VALID,0,
2010-11-23, 00:22:04,VALID,1008.2,VALID,0,VALID,103.657,VALID,0.105969,VALID,23.8109,VALID,16,VALID,0,
2010-11-23, 00:23:04,VALID,1008.17,VALID,0,VALID,103.672,VALID,0.105969,VALID,23.7896,VALID,16,VALID,0,
2010-11-23, 00:24:04,VALID,1008.16,VALID,0,VALID,103.657,VALID,0.105969,VALID,23.7896,VALID,16,VALID,0,
2010-11-23, 00:25:04,VALID,1008.1,VALID,0,VALID,103.68,VALID,0.105969,VALID,23.7701,VALID,16,VALID,0,
2010-11-23, 00:26:04,VALID,1008.12,VALID,0,VALID,103.695,VALID,0.105969,VALID,23.7507,VALID,16,VALID,0,
2010-11-23, 00:27:04,VALID,1008.13,VALID,0,VALID,103.703,VALID,0.105969,VALID,23.7507,VALID,16,VALID,0,
2010-11-23, 00:28:04,VALID,1008.09,VALID,0,VALID,103.695,VALID,0.105969,VALID,23.7312,VALID,16,VALID,0,
2010-11-23, 00:29:04,VALID,1008.07,VALID,0,VALID,103.695,VALID,0.105969,VALID,23.7312,VALID,16,VALID,0,
2010-11-23, 00:30:04,VALID,1008.09,VALID,0,VALID,103.703,VALID,0.105969,VALID,23.7312,VALID,16,VALID,0,
2010-11-23, 00:31:04,VALID,1008.06,VALID,0,VALID,103.695,VALID,0.105969,VALID,23.7312,VALID,16,VALID,0,
2010-11-23, 00:32:04,VALID,1008.04,VALID,0,VALID,103.703,VALID,0.105969,VALID,23.7117,VALID,16,VALID,0,
2010-11-23, 00:33:04,VALID,1008.01,VALID,0,VALID,103.703,VALID,0.105969,VALID,23.7117,VALID,16,VALID,0,
2010-11-23, 00:34:04,VALID,1007.99,VALID,0,VALID,103.687,VALID,0.105969,VALID,23.7117,VALID,16,VALID,0,
2010-11-23, 00:35:04,VALID,1007.99,VALID,0,VALID,103.687,VALID,0.105969,VALID,23.7117,VALID,16,VALID,0,
2010-11-23, 00:36:04,VALID,1007.97,VALID,0,VALID,103.672,VALID,0.105969,VALID,23.7117,VALID,16,VALID,0,
2010-11-23, 00:37:04,VALID,1007.98,VALID,0,VALID,103.695,VALID,0.105969,VALID,23.7117,VALID,16,VALID,0,
2010-11-23, 00:38:04,VALID,1007.95,VALID,0,VALID,103.687,VALID,0.211938,VALID,23.7117,VALID,16,VALID,0,
2010-11-23, 00:39:04,VALID,1007.99,VALID,0,VALID,103.703,VALID,0,VALID,23.694,VALID,16,VALID,0,
2010-11-23, 00:40:04,VALID,1007.96,VALID,0,VALID,103.703,VALID,0,VALID,23.7135,VALID,16,VALID,0,
2010-11-23, 00:41:04,VALID,1007.97,VALID,0,VALID,103.695,VALID,0,VALID,23.7135,VALID,16,VALID,0.229297,
2010-11-23, 00:42:04,VALID,1007.98,VALID,0,VALID,103.703,VALID,0,VALID,23.7135,VALID,16,VALID,0.129297,
2010-11-23, 00:43:04,VALID,1007.98,VALID,0,VALID,103.718,VALID,0,VALID,23.733,VALID,16,VALID,0,
2010-11-23, 00:44:04,VALID,1008,VALID,0,VALID,103.71,VALID,0,VALID,23.6922,VALID,16,VALID,0,
2010-11-23, 00:45:04,VALID,1007.95,VALID,0,VALID,103.703,VALID,0,VALID,23.7135,VALID,16,VALID,0,
2010-11-23, 00:46:04,VALID,1007.95,VALID,0,VALID,103.687,VALID,0,VALID,23.733,VALID,16,VALID,0,
2010-11-23, 00:47:04,VALID,1007.94,VALID,0,VALID,103.718,VALID,0,VALID,23.733,VALID,16,VALID,0,
2010-11-23, 00:48:04,VALID,1007.93,VALID,0,VALID,103.687,VALID,0,VALID,23.7135,VALID,16,VALID,0,
2010-11-23, 00:49:04,VALID,1007.89,VALID,0,VALID,103.695,VALID,0,VALID,23.7135,VALID,16,VALID,0,
2010-11-23, 00:50:04,VALID,1007.86,VALID,0,VALID,103.703,VALID,0,VALID,23.7135,VALID,16,VALID,0,
2010-11-23, 00:51:04,VALID,1007.88,VALID,0,VALID,103.71,VALID,0,VALID,23.7135,VALID,16,VALID,0,
2010-11-23, 00:52:04,VALID,1007.85,VALID,0,VALID,103.695,VALID,0,VALID,23.7135,VALID,16,VALID,0,
2010-11-23, 00:53:04,VALID,1007.81,VALID,0,VALID,103.71,VALID,0.105969,VALID,23.7135,VALID,16,VALID,0,
2010-11-23, 00:54:04,VALID,1007.82,VALID,0,VALID,103.703,VALID,0,VALID,23.7135,VALID,16,VALID,0,
2010-11-23, 00:55:04,VALID,1007.82,VALID,0,VALID,103.718,VALID,0,VALID,23.694,VALID,16,VALID,0,
2010-11-23, 00:56:04,VALID,1007.8,VALID,0,VALID,103.703,VALID,0,VALID,23.694,VALID,16,VALID,0,
2010-11-23, 00:57:04,VALID,1007.82,VALID,0,VALID,103.718,VALID,0,VALID,23.6745,VALID,16,VALID,0,
2010-11-23, 00:58:04,VALID,1007.83,VALID,0,VALID,103.726,VALID,0,VALID,23.6745,VALID,16,VALID,0,
2010-11-23, 00:59:04,VALID,1007.81,VALID,0,VALID,103.741,VALID,0,VALID,23.655,VALID,16,VALID,0,
2010-11-23, 01:00:04,VALID,1007.78,VALID,0,VALID,103.726,VALID,0,VALID,23.655,VALID,16,VALID,0,
2010-11-23, 01:01:04,VALID,1007.79,VALID,0,VALID,103.718,VALID,0,VALID,23.655,VALID,16,VALID,0,
2010-11-23, 01:02:04,VALID,1007.75,VALID,0,VALID,103.718,VALID,0,VALID,23.6356,VALID,16,VALID,0,
2010-11-23, 01:03:04,VALID,1007.73,VALID,0,VALID,103.703,VALID,0,VALID,23.6356,VALID,16,VALID,0,
2010-11-23, 01:04:04,VALID,1007.75,VALID,0,VALID,103.71,VALID,0,VALID,23.6356,VALID,16,VALID,0,
2010-11-23, 01:05:04,VALID,1007.71,VALID,0,VALID,103.71,VALID,0,VALID,23.6161,VALID,16,VALID,0,
2010-11-23, 01:06:04,VALID,1007.72,VALID,0,VALID,103.718,VALID,0,VALID,23.6161,VALID,16,VALID,0,
2010-11-23, 01:07:04,VALID,1007.68,VALID,0,VALID,103.718,VALID,0,VALID,23.5966,VALID,16,VALID,0,
2010-11-23, 01:08:04,VALID,1007.67,VALID,0,VALID,103.718,VALID,0,VALID,23.5771,VALID,16,VALID,0,
2010-11-23, 01:09:04,VALID,1007.65,VALID,0,VALID,103.695,VALID,0,VALID,23.5771,VALID,16,VALID,0,
2010-11-23, 01:10:04,VALID,1007.67,VALID,0,VALID,103.687,VALID,0,VALID,23.6179,VALID,16,VALID,0.499609,
2010-11-23, 01:11:04,VALID,1007.63,VALID,0,VALID,103.672,VALID,0,VALID,23.5948,VALID,16,VALID,0.213672,
2010-11-23, 01:12:04,VALID,1007.64,VALID,0,VALID,103.672,VALID,0,VALID,23.6161,VALID,16,VALID,0,
2010-11-23, 01:13:04,VALID,1007.61,VALID,0,VALID,103.657,VALID,0,VALID,23.6356,VALID,16,VALID,0.289844,
2010-11-23, 01:14:04,VALID,1007.6,VALID,0,VALID,103.664,VALID,0,VALID,23.6373,VALID,16,VALID,0.426562,
2010-11-23, 01:15:04,VALID,1007.54,VALID,0,VALID,103.649,VALID,0,VALID,23.6356,VALID,16,VALID,0,
2010-11-23, 01:16:04,VALID,1007.54,VALID,0,VALID,103.657,VALID,0,VALID,23.6356,VALID,45,VALID,0.553125,
2010-11-23, 01:17:04,VALID,1007.52,VALID,0,VALID,103.672,VALID,0,VALID,23.5948,VALID,68,VALID,0.289453,
2010-11-23, 01:18:04,VALID,1007.49,VALID,0,VALID,103.695,VALID,0,VALID,23.6161,VALID,68,VALID,0,
2010-11-23, 01:19:04,VALID,1007.45,VALID,0,VALID,103.687,VALID,0,VALID,23.6161,VALID,68,VALID,0,
2010-11-23, 01:20:04,VALID,1007.43,VALID,0,VALID,103.687,VALID,0,VALID,23.6356,VALID,68,VALID,0.0566406,
2010-11-23, 01:21:04,VALID,1007.44,VALID,0,VALID,103.687,VALID,0,VALID,23.6373,VALID,72,VALID,0,
2010-11-23, 01:22:04,VALID,1007.42,VALID,0,VALID,103.664,VALID,0,VALID,23.5948,VALID,72,VALID,0,
2010-11-23, 01:23:04,VALID,1007.39,VALID,0,VALID,103.672,VALID,0,VALID,23.6161,VALID,97,VALID,0,
2010-11-23, 01:24:04,VALID,1007.39,VALID,0,VALID,103.657,VALID,0,VALID,23.655,VALID,105,VALID,0,
2010-11-23, 01:25:04,VALID,1007.4,VALID,0,VALID,103.672,VALID,0.105969,VALID,23.6338,VALID,105,VALID,0,
2010-11-23, 01:26:04,VALID,1007.41,VALID,0,VALID,103.672,VALID,0.105969,VALID,23.6338,VALID,105,VALID,0,
2010-11-23, 01:27:04,VALID,1007.43,VALID,0,VALID,103.664,VALID,0.105969,VALID,23.6338,VALID,105,VALID,0,
2010-11-23, 01:28:04,VALID,1007.37,VALID,0,VALID,103.68,VALID,0.105969,VALID,23.6532,VALID,105,VALID,0,
2010-11-23, 01:29:04,VALID,1007.36,VALID,0,VALID,103.687,VALID,0.105969,VALID,23.6532,VALID,105,VALID,0,
2010-11-23, 01:30:04,VALID,1007.36,VALID,0,VALID,103.687,VALID,0.105969,VALID,23.6532,VALID,105,VALID,0,
2010-11-23, 01:31:04,VALID,1007.37,VALID,0,VALID,103.664,VALID,0.105969,VALID,23.6727,VALID,105,VALID,0,
2010-11-23, 01:32:04,VALID,1007.33,VALID,0,VALID,103.703,VALID,0.105969,VALID,23.632,VALID,105,VALID,0,
2010-11-23, 01:33:04,VALID,1007.35,VALID,0,VALID,103.718,VALID,0.105969,VALID,23.6532,VALID,105,VALID,0,
2010-11-23, 01:34:04,VALID,1007.33,VALID,0,VALID,103.718,VALID,0.105969,VALID,23.6338,VALID,105,VALID,0,
2010-11-23, 01:35:04,VALID,1007.34,VALID,0,VALID,103.718,VALID,0.105969,VALID,23.6143,VALID,105,VALID,0,
2010-11-23, 01:36:04,VALID,1007.32,VALID,0,VALID,103.726,VALID,0.105969,VALID,23.6338,VALID,105,VALID,0,
2010-11-23, 01:37:04,VALID,1007.34,VALID,0,VALID,103.726,VALID,0,VALID,23.6338,VALID,105,VALID,0,
2010-11-23, 01:38:04,VALID,1007.34,VALID,0,VALID,103.703,VALID,0.105969,VALID,23.6143,VALID,105,VALID,0,
2010-11-23, 01:39:04,VALID,1007.33,VALID,0,VALID,103.71,VALID,0.105969,VALID,23.6143,VALID,105,VALID,0,
2010-11-23, 01:40:04,VALID,1007.32,VALID,0,VALID,103.703,VALID,0.105969,VALID,23.6143,VALID,105,VALID,0,
2010-11-23, 01:41:04,VALID,1007.3,VALID,0,VALID,103.726,VALID,0.105969,VALID,23.6143,VALID,105,VALID,0,
2010-11-23, 01:42:04,VALID,1007.32,VALID,0,VALID,103.703,VALID,0.105969,VALID,23.5948,VALID,105,VALID,0,
2010-11-23, 01:43:04,VALID,1007.3,VALID,0,VALID,103.718,VALID,0.105969,VALID,23.5948,VALID,105,VALID,0,
2010-11-23, 01:44:04,VALID,1007.26,VALID,0,VALID,103.703,VALID,0.105969,VALID,23.5948,VALID,105,VALID,0,
2010-11-23, 01:45:04,VALID,1007.26,VALID,0,VALID,103.703,VALID,0.105969,VALID,23.6143,VALID,105,VALID,0,
2010-11-23, 01:46:04,VALID,1007.22,VALID,0,VALID,103.71,VALID,0.105969,VALID,23.5948,VALID,105,VALID,0,
2010-11-23, 01:47:04,VALID,1007.22,VALID,0,VALID,103.703,VALID,0.105969,VALID,23.6143,VALID,105,VALID,0,
2010-11-23, 01:48:04,VALID,1007.22,VALID,0,VALID,103.718,VALID,0.105969,VALID,23.6356,VALID,105,VALID,0,
2010-11-23, 01:49:04,VALID,1007.21,VALID,0,VALID,103.718,VALID,0.105969,VALID,23.6356,VALID,105,VALID,0,
2010-11-23, 01:50:04,VALID,1007.2,VALID,0,VALID,103.718,VALID,0.105969,VALID,23.6338,VALID,105,VALID,0,
2010-11-23, 01:51:04,VALID,1007.2,VALID,0,VALID,103.726,VALID,0.105969,VALID,23.6143,VALID,105,VALID,0,
2010-11-23, 01:52:04,VALID,1007.2,VALID,0,VALID,103.741,VALID,0.105969,VALID,23.655,VALID,105,VALID,0,
2010-11-23, 01:53:04,VALID,1007.2,VALID,0,VALID,103.741,VALID,0,VALID,23.6143,VALID,105,VALID,0,
2010-11-23, 01:54:04,VALID,1007.18,VALID,0,VALID,103.741,VALID,0,VALID,23.5966,VALID,105,VALID,0,
2010-11-23, 01:55:04,VALID,1007.17,VALID,0,VALID,103.748,VALID,0,VALID,23.5966,VALID,105,VALID,0,
2010-11-23, 01:56:04,VALID,1007.17,VALID,0,VALID,103.748,VALID,0,VALID,23.5771,VALID,105,VALID,0,
2010-11-23, 01:57:04,VALID,1007.14,VALID,0,VALID,103.756,VALID,0,VALID,23.5771,VALID,105,VALID,0,
2010-11-23, 01:58:04,VALID,1007.16,VALID,0,VALID,103.741,VALID,0,VALID,23.5771,VALID,105,VALID,0,
2010-11-23, 01:59:04,VALID,1007.15,VALID,0,VALID,103.748,VALID,0,VALID,23.5576,VALID,105,VALID,0,
2010-11-23, 02:00:04,VALID,1007.11,VALID,0,VALID,103.756,VALID,0,VALID,23.5381,VALID,127,VALID,0,
2010-11-23, 02:01:04,VALID,1007.12,VALID,0,VALID,103.741,VALID,0,VALID,23.5381,VALID,147,VALID,0,
2010-11-23, 02:02:04,VALID,1007.12,VALID,0,VALID,103.756,VALID,0,VALID,23.5186,VALID,147,VALID,0,
2010-11-23, 02:03:04,VALID,1007.09,VALID,0,VALID,103.748,VALID,0,VALID,23.5381,VALID,147,VALID,0,
2010-11-23, 02:04:04,VALID,1007.07,VALID,0,VALID,103.764,VALID,0,VALID,23.4992,VALID,147,VALID,0,
2010-11-23, 02:05:04,VALID,1007.07,VALID,0,VALID,103.733,VALID,0,VALID,23.5186,VALID,147,VALID,0,
2010-11-23, 02:06:04,VALID,1007.03,VALID,0,VALID,103.748,VALID,0,VALID,23.4992,VALID,147,VALID,0,
2010-11-23, 02:07:04,VALID,1007.02,VALID,0,VALID,103.764,VALID,0,VALID,23.5204,VALID,147,VALID,0,
2010-11-23, 02:08:04,VALID,1006.97,VALID,0,VALID,103.756,VALID,0,VALID,23.4797,VALID,147,VALID,0,
2010-11-23, 02:09:04,VALID,1006.98,VALID,0,VALID,103.733,VALID,0,VALID,23.4992,VALID,147,VALID,0,
2010-11-23, 02:10:04,VALID,1006.95,VALID,0,VALID,103.733,VALID,0,VALID,23.4797,VALID,147,VALID,0,
2010-11-23, 02:11:04,VALID,1006.95,VALID,0,VALID,103.733,VALID,0,VALID,23.4797,VALID,147,VALID,0,
2010-11-23, 02:12:04,VALID,1006.9,VALID,0,VALID,103.726,VALID,0,VALID,23.4797,VALID,147,VALID,0,
2010-11-23, 02:13:04,VALID,1006.91,VALID,0,VALID,103.726,VALID,0,VALID,23.4797,VALID,147,VALID,0,
2010-11-23, 02:14:04,VALID,1006.88,VALID,0,VALID,103.733,VALID,0,VALID,23.4797,VALID,147,VALID,0,
2010-11-23, 02:15:04,VALID,1006.85,VALID,0,VALID,103.733,VALID,0,VALID,23.4992,VALID,127,VALID,0,
2010-11-23, 02:16:04,VALID,1006.85,VALID,0,VALID,103.733,VALID,0,VALID,23.4992,VALID,127,VALID,0,
2010-11-23, 02:17:04,VALID,1006.84,VALID,0,VALID,103.718,VALID,0,VALID,23.4992,VALID,127,VALID,0,
2010-11-23, 02:18:04,VALID,1006.8,VALID,0,VALID,103.733,VALID,0,VALID,23.4992,VALID,127,VALID,0,
2010-11-23, 02:19:04,VALID,1006.78,VALID,0,VALID,103.733,VALID,0,VALID,23.4797,VALID,127,VALID,0,
2010-11-23, 02:20:04,VALID,1006.74,VALID,0,VALID,103.733,VALID,0,VALID,23.4797,VALID,120,VALID,0,
2010-11-23, 02:21:04,VALID,1006.71,VALID,0,VALID,103.733,VALID,0,VALID,23.4797,VALID,109,VALID,0,
2010-11-23, 02:22:04,VALID,1006.71,VALID,0,VALID,103.733,VALID,0,VALID,23.4797,VALID,109,VALID,0,
2010-11-23, 02:23:04,VALID,1006.67,VALID,0,VALID,103.748,VALID,0,VALID,23.4797,VALID,109,VALID,0,
2010-11-23, 02:24:04,VALID,1006.65,VALID,0,VALID,103.756,VALID,0,VALID,23.4797,VALID,109,VALID,0,
2010-11-23, 02:25:04,VALID,1006.64,VALID,0,VALID,103.748,VALID,0,VALID,23.4584,VALID,109,VALID,0,
2010-11-23, 02:26:04,VALID,1006.6,VALID,0,VALID,103.741,VALID,0.105969,VALID,23.4389,VALID,109,VALID,0,
2010-11-23, 02:27:04,VALID,1006.61,VALID,0,VALID,103.764,VALID,0.105969,VALID,23.4584,VALID,109,VALID,0,
2010-11-23, 02:28:04,VALID,1006.58,VALID,0,VALID,103.741,VALID,0.105969,VALID,23.4389,VALID,109,VALID,0,
2010-11-23, 02:29:04,VALID,1006.56,VALID,0,VALID,103.748,VALID,0.105969,VALID,23.4194,VALID,109,VALID,0,
2010-11-23, 02:30:04,VALID,1006.57,VALID,0,VALID,103.771,VALID,0.105969,VALID,23.4194,VALID,109,VALID,0,
2010-11-23, 02:31:04,VALID,1006.54,VALID,0,VALID,103.748,VALID,0.105969,VALID,23.4194,VALID,109,VALID,0,
2010-11-23, 02:32:04,VALID,1006.51,VALID,0,VALID,103.741,VALID,0.105969,VALID,23.4212,VALID,109,VALID,0,
2010-11-23, 02:33:04,VALID,1006.53,VALID,0,VALID,103.756,VALID,0.105969,VALID,23.3805,VALID,109,VALID,0,
2010-11-23, 02:34:04,VALID,1006.53,VALID,0,VALID,103.748,VALID,0.105969,VALID,23.4017,VALID,109,VALID,0,
2010-11-23, 02:35:04,VALID,1006.53,VALID,0,VALID,103.771,VALID,0.105969,VALID,23.361,VALID,109,VALID,0,
2010-11-23, 02:36:04,VALID,1006.5,VALID,0,VALID,103.764,VALID,0.105969,VALID,23.3415,VALID,109,VALID,0,
2010-11-23, 02:37:04,VALID,1006.5,VALID,0,VALID,103.741,VALID,0.105969,VALID,23.3628,VALID,109,VALID,0,
2010-11-23, 02:38:04,VALID,1006.51,VALID,0,VALID,103.733,VALID,0,VALID,23.3433,VALID,109,VALID,0,
2010-11-23, 02:39:04,VALID,1006.49,VALID,0,VALID,103.756,VALID,0.105969,VALID,23.322,VALID,109,VALID,0,
2010-11-23, 02:40:04,VALID,1006.5,VALID,0,VALID,103.748,VALID,0.105969,VALID,23.3026,VALID,109,VALID,0,
2010-11-23, 02:41:04,VALID,1006.48,VALID,0,VALID,103.748,VALID,0.105969,VALID,23.3026,VALID,109,VALID,0,
2010-11-23, 02:42:04,VALID,1006.47,VALID,0,VALID,103.741,VALID,0.105969,VALID,23.2831,VALID,109,VALID,0,
2010-11-23, 02:43:04,VALID,1006.46,VALID,0,VALID,103.726,VALID,0.105969,VALID,23.3026,VALID,109,VALID,0,
2010-11-23, 02:44:04,VALID,1006.46,VALID,0,VALID,103.71,VALID,0.105969,VALID,23.2831,VALID,109,VALID,0,
2010-11-23, 02:45:04,VALID,1006.47,VALID,0,VALID,103.703,VALID,0.105969,VALID,23.3026,VALID,109,VALID,0,
2010-11-23, 02:46:04,VALID,1006.47,VALID,0,VALID,103.703,VALID,0.105969,VALID,23.3026,VALID,109,VALID,0,
2010-11-23, 02:47:04,VALID,1006.5,VALID,0,VALID,103.726,VALID,0.105969,VALID,23.2831,VALID,109,VALID,0,
2010-11-23, 02:48:04,VALID,1006.44,VALID,0,VALID,103.764,VALID,0.105969,VALID,23.2636,VALID,109,VALID,0,
2010-11-23, 02:49:04,VALID,1006.48,VALID,0,VALID,103.748,VALID,0.105969,VALID,23.2441,VALID,109,VALID,0,
2010-11-23, 02:50:04,VALID,1006.46,VALID,0,VALID,103.741,VALID,0.105969,VALID,23.2246,VALID,109,VALID,0,
2010-11-23, 02:51:04,VALID,1006.44,VALID,0,VALID,103.756,VALID,0.105969,VALID,23.2051,VALID,109,VALID,0,
2010-11-23, 02:52:04,VALID,1006.45,VALID,0,VALID,103.748,VALID,0.105969,VALID,23.2051,VALID,109,VALID,0,
2010-11-23, 02:53:04,VALID,1006.44,VALID,0,VALID,103.756,VALID,0.105969,VALID,23.1857,VALID,109,VALID,0,
2010-11-23, 02:54:04,VALID,1006.43,VALID,0,VALID,103.748,VALID,0,VALID,23.1874,VALID,109,VALID,0,
2010-11-23, 02:55:04,VALID,1006.44,VALID,0,VALID,103.756,VALID,0,VALID,23.1679,VALID,109,VALID,0,
2010-11-23, 02:56:04,VALID,1006.43,VALID,0,VALID,103.733,VALID,0,VALID,23.1892,VALID,109,VALID,0,
2010-11-23, 02:57:04,VALID,1006.42,VALID,0,VALID,103.726,VALID,0,VALID,23.1485,VALID,109,VALID,0,
2010-11-23, 02:58:04,VALID,1006.42,VALID,0,VALID,103.726,VALID,0,VALID,23.1697,VALID,109,VALID,0,
2010-11-23, 02:59:04,VALID,1006.43,VALID,0,VALID,103.687,VALID,0,VALID,23.1679,VALID,109,VALID,0,
2010-11-23, 03:00:04,VALID,1006.39,VALID,0,VALID,103.664,VALID,0,VALID,23.1679,VALID,109,VALID,0,
2010-11-23, 03:01:04,VALID,1006.4,VALID,0,VALID,103.634,VALID,0,VALID,23.2264,VALID,109,VALID,0,
2010-11-23, 03:02:04,VALID,1006.42,VALID,0,VALID,103.68,VALID,0,VALID,23.2282,VALID,109,VALID,0,
2010-11-23, 03:03:04,VALID,1006.38,VALID,0,VALID,103.657,VALID,0,VALID,23.2069,VALID,109,VALID,0,
2010-11-23, 03:04:04,VALID,1006.39,VALID,0,VALID,103.68,VALID,0.105969,VALID,23.1857,VALID,109,VALID,0,
2010-11-23, 03:05:04,VALID,1006.36,VALID,0,VALID,103.672,VALID,0.105969,VALID,23.1857,VALID,109,VALID,0,
2010-11-23, 03:06:04,VALID,1006.39,VALID,0,VALID,103.649,VALID,0.105969,VALID,23.2264,VALID,109,VALID,0,
2010-11-23, 03:07:04,VALID,1006.37,VALID,0,VALID,103.626,VALID,0.105969,VALID,23.2051,VALID,109,VALID,0,
2010-11-23, 03:08:04,VALID,1006.37,VALID,0,VALID,103.649,VALID,0.105969,VALID,23.1857,VALID,109,VALID,0,
2010-11-23, 03:09:04,VALID,1006.39,VALID,0,VALID,103.657,VALID,0,VALID,23.1874,VALID,109,VALID,0,
2010-11-23, 03:10:04,VALID,1006.38,VALID,0,VALID,103.634,VALID,0,VALID,23.1874,VALID,109,VALID,0,
2010-11-23, 03:11:04,VALID,1006.38,VALID,0,VALID,103.634,VALID,0,VALID,23.1874,VALID,109,VALID,0,
2010-11-23, 03:12:04,VALID,1006.36,VALID,0,VALID,103.626,VALID,0,VALID,23.1679,VALID,109,VALID,0,
2010-11-23, 03:13:04,VALID,1006.33,VALID,0,VALID,103.626,VALID,0,VALID,23.1662,VALID,109,VALID,0,
2010-11-23, 03:14:04,VALID,1006.36,VALID,0,VALID,103.649,VALID,0,VALID,23.1679,VALID,109,VALID,0,
2010-11-23, 03:15:04,VALID,1006.31,VALID,0,VALID,103.619,VALID,0,VALID,23.1679,VALID,109,VALID,0,
2010-11-23, 03:16:04,VALID,1006.32,VALID,0,VALID,103.603,VALID,0,VALID,23.1679,VALID,109,VALID,0,
2010-11-23, 03:17:04,VALID,1006.29,VALID,0,VALID,103.611,VALID,0,VALID,23.1485,VALID,109,VALID,0,
2010-11-23, 03:18:04,VALID,1006.29,VALID,0,VALID,103.603,VALID,0,VALID,23.1485,VALID,109,VALID,0,
2010-11-23, 03:19:04,VALID,1006.28,VALID,0,VALID,103.619,VALID,0,VALID,23.1485,VALID,109,VALID,0,
2010-11-23, 03:20:04,VALID,1006.28,VALID,0,VALID,103.573,VALID,0,VALID,23.1485,VALID,109,VALID,0,
2010-11-23, 03:21:04,VALID,1006.28,VALID,0,VALID,103.558,VALID,0,VALID,23.1679,VALID,109,VALID,0,
2010-11-23, 03:22:04,VALID,1006.29,VALID,0,VALID,103.535,VALID,0,VALID,23.1679,VALID,109,VALID,0,
2010-11-23, 03:23:04,VALID,1006.28,VALID,0,VALID,103.55,VALID,0,VALID,23.1679,VALID,109,VALID,0,
2010-11-23, 03:24:04,VALID,1006.29,VALID,0,VALID,103.52,VALID,0,VALID,23.1679,VALID,109,VALID,0,
2010-11-23, 03:25:04,VALID,1006.27,VALID,0,VALID,103.558,VALID,0,VALID,23.1485,VALID,109,VALID,0,
2010-11-23, 03:26:04,VALID,1006.24,VALID,0,VALID,103.55,VALID,0,VALID,23.1485,VALID,109,VALID,0,
2010-11-23, 03:27:04,VALID,1006.25,VALID,0,VALID,103.535,VALID,0,VALID,23.1485,VALID,109,VALID,0,
2010-11-23, 03:28:04,VALID,1006.23,VALID,0,VALID,103.542,VALID,0,VALID,23.1485,VALID,109,VALID,0,
2010-11-23, 03:29:04,VALID,1006.23,VALID,0,VALID,103.527,VALID,0,VALID,23.129,VALID,109,VALID,0,
2010-11-23, 03:30:04,VALID,1006.22,VALID,0,VALID,103.542,VALID,0,VALID,23.129,VALID,109,VALID,0,
2010-11-23, 03:31:04,VALID,1006.2,VALID,0,VALID,103.558,VALID,0,VALID,23.1307,VALID,109,VALID,0,
2010-11-23, 03:32:04,VALID,1006.23,VALID,0,VALID,103.558,VALID,0,VALID,23.09,VALID,109,VALID,0,
2010-11-23, 03:33:04,VALID,1006.19,VALID,0,VALID,103.558,VALID,0,VALID,23.0705,VALID,109,VALID,0,
2010-11-23, 03:34:04,VALID,1006.23,VALID,0,VALID,103.542,VALID,0,VALID,23.0705,VALID,109,VALID,0,
2010-11-23, 03:35:04,VALID,1006.21,VALID,0,VALID,103.558,VALID,0,VALID,23.0511,VALID,109,VALID,0,
2010-11-23, 03:36:04,VALID,1006.18,VALID,0,VALID,103.535,VALID,0,VALID,23.0511,VALID,109,VALID,0,
2010-11-23, 03:37:04,VALID,1006.2,VALID,0,VALID,103.527,VALID,0,VALID,23.0511,VALID,109,VALID,0,
2010-11-23, 03:38:04,VALID,1006.19,VALID,0,VALID,103.512,VALID,0,VALID,23.0511,VALID,109,VALID,0,
2010-11-23, 03:39:04,VALID,1006.16,VALID,0,VALID,103.489,VALID,0,VALID,23.0705,VALID,109,VALID,0,
2010-11-23, 03:40:04,VALID,1006.15,VALID,0,VALID,103.466,VALID,0,VALID,23.0705,VALID,109,VALID,0,
2010-11-23, 03:41:04,VALID,1006.16,VALID,0,VALID,103.481,VALID,0,VALID,23.0493,VALID,109,VALID,0,
2010-11-23, 03:42:04,VALID,1006.15,VALID,0,VALID,103.481,VALID,0,VALID,23.0705,VALID,109,VALID,0,
2010-11-23, 03:43:04,VALID,1006.15,VALID,0,VALID,103.481,VALID,0,VALID,23.0705,VALID,109,VALID,0,
2010-11-23, 03:44:04,VALID,1006.16,VALID,0,VALID,103.466,VALID,0,VALID,23.0511,VALID,109,VALID,0,
2010-11-23, 03:45:04,VALID,1006.15,VALID,0,VALID,103.474,VALID,0,VALID,23.0705,VALID,109,VALID,0,
2010-11-23, 03:46:04,VALID,1006.15,VALID,0,VALID,103.466,VALID,0,VALID,23.0511,VALID,109,VALID,0,
2010-11-23, 03:47:04,VALID,1006.13,VALID,0,VALID,103.443,VALID,0,VALID,23.0705,VALID,109,VALID,0,
2010-11-23, 03:48:04,VALID,1006.13,VALID,0,VALID,103.459,VALID,0,VALID,23.0511,VALID,109,VALID,0,
2010-11-23, 03:49:04,VALID,1006.13,VALID,0,VALID,103.459,VALID,0,VALID,23.0511,VALID,109,VALID,0,
2010-11-23, 03:50:04,VALID,1006.12,VALID,0,VALID,103.428,VALID,0,VALID,23.0528,VALID,109,VALID,0,
2010-11-23, 03:51:04,VALID,1006.12,VALID,0,VALID,103.428,VALID,0,VALID,23.0723,VALID,109,VALID,0,
2010-11-23, 03:52:04,VALID,1006.13,VALID,0,VALID,103.436,VALID,0,VALID,23.0316,VALID,109,VALID,0,
2010-11-23, 03:53:04,VALID,1006.11,VALID,0,VALID,103.428,VALID,0,VALID,23.0511,VALID,109,VALID,0,